Home > Weather > Helsingborg > Past weeks

Flag for Sweden Past Weather in Helsingborg, Sweden — Yesterday and Last 2 Weeks

Now
57 °F

Cool.


Feels Like: 57 °F
Forecast: 60 / 68 °F
Wind: 3 mph from Southeast

Location: Ljungbyhed

Current Time: Jul 25, 2016 at 4:24:12 AM

Latest Report: Jul 25, 2016 at 3:50 AM


Visibility: N/A

Pressure: 30.09 "Hg

Humidity: 94%

Dew Point: 55 °F

Location of HelsingborgLocation

Past Weather in Helsingborg — Graph

°F

Helsingborg Temperature Yesterday

Maximum temperature yesterday: 82 °F (at 1:20 PM)
Minimum temperature yesterday: 59 °F (at 4:50 AM)
Average temperature yesterday: 71 °F

High & Low Weather Summary for the Past Weeks

 TemperatureHumidityPressure
High82 °F (Jul 22, 2:50 PM)100% (Jul 15, 12:20 AM)30.15 "Hg (Jul 15, 12:20 AM)
Low52 °F (Jul 22, 4:20 AM)40% (Jul 24, 2:50 PM)29.83 "Hg (Jul 14, 7:50 PM)
Average65 °F75%30.05 "Hg
* Reported Jul 14 5:20 PM — Jul 25 3:20 AM, Helsingborg, Weather by CustomWeather, © 2016

Note: Actual official high and low records may vary slightly from our data, if they occured in-between our weather recording intervals... More about our weather records

Advertising

Helsingborg Weather History for the Previous 24 Hours

Scroll right to see more
 ConditionsComfort  
Time TempWeatherWind HumidityBarometerVisibility
3:20 AM
Mon, Jul 25
57 °FCool.5 mph94%30.09 "HgN/A
2:50 AM57 °FCool.5 mph94%30.09 "HgN/A
2:20 AM57 °FCool.3 mph94%30.09 "HgN/A
1:50 AM59 °FCool.3 mph88%30.09 "HgN/A
1:20 AM57 °FCool.2 mph94%30.12 "HgN/A
12:50 AM59 °FCool.2 mph88%30.12 "HgN/A
12:20 AM63 °FMild.3 mph83%30.12 "HgN/A
11:50 PM
Sun, Jul 24
63 °FMild.5 mph77%30.12 "HgN/A
11:20 PM64 °FMild.5 mph78%30.12 "HgN/A
10:50 PM68 °FMild.2 mph60%30.12 "HgN/A
10:20 PM68 °FFog.7 mph60%30.12 "Hg4 mi
9:50 PM70 °FMild.2 mph57%30.12 "HgN/A
9:20 PM70 °FMild.6 mph64%30.09 "HgN/A
8:50 PM73 °FMild.5 mph61%30.09 "HgN/A
8:20 PM77 °FWarm.6 mph57%30.09 "HgN/A
7:50 PM79 °FWarm.8 mph51%30.09 "HgN/A
7:20 PM81 °FWarm.8 mph48%30.09 "HgN/A
6:50 PM81 °FWarm.8 mph45%30.09 "HgN/A
6:20 PM82 °FWarm.8 mph45%30.09 "HgN/A
5:50 PM82 °FWarm.9 mph42%30.09 "HgN/A
5:20 PM82 °FWarm.7 mph45%30.09 "HgN/A
4:50 PM82 °FWarm.6 mph48%30.09 "HgN/A
4:20 PM82 °FWarm.8 mph48%30.09 "HgN/A
3:50 PM82 °FWarm.6 mph48%30.09 "HgN/A
3:20 PM82 °FPleasantly warm.5 mph40%30.12 "HgN/A
2:50 PM82 °FPleasantly warm.3 mph40%30.12 "HgN/A
2:20 PM82 °FWarm.5 mph42%30.12 "HgN/A
1:50 PM81 °FWarm.3 mph45%30.12 "HgN/A
1:20 PM82 °FWarm.3 mph45%30.12 "HgN/A
12:50 PM81 °FPassing clouds.3 mph45%30.12 "HgN/A
12:20 PM81 °FWarm.2 mph48%30.12 "HgN/A
11:50 AM79 °FWarm.2 mph51%30.12 "HgN/A
11:20 AM77 °FWarm.2 mph57%30.12 "HgN/A
10:50 AM73 °FMild.3 mph65%30.12 "HgN/A
10:20 AM73 °FMild.3 mph69%30.15 "HgN/A
9:50 AM72 °FMild.2 mph73%30.15 "HgN/A
9:20 AM70 °FMild.No wind73%30.12 "HgN/A
8:50 AM66 °FMild.1 mph83%30.12 "HgN/A
8:20 AM66 °FMild.2 mph83%30.12 "HgN/A
7:50 AM64 °FMild.2 mph88%30.12 "HgN/A
7:20 AM63 °FMild.1 mph94%30.12 "HgN/A
6:50 AM63 °FMild.2 mph88%30.12 "HgN/A
6:20 AM59 °FCool.1 mph100%30.15 "HgN/A
5:50 AM59 °FCool.No wind94%30.15 "HgN/A
5:20 AM59 °FCool.1 mph94%30.12 "HgN/A
4:50 AM59 °FCool.2 mph100%30.15 "HgN/A
4:20 AM61 °FCool.2 mph94%30.15 "HgN/A
Weather by CustomWeather, © 2016

See weather overviewHow to use our weather pages